Location: Invercargill
(46.4000°S, 168.3500°E)
Time: 23:24:28
(UTC+12:00)

Courier 1B Rocket - Visible Passes

Search period start: 20 July 2019 00:00
Search period end: 30 July 2019 00:00
Orbit: 920 x 1202 km, 28.2° (Epoch: 19 July)

Date Brightness Start Highest point End Pass type
(mag) Time Alt. Az. Time Alt. Az. Time Alt. Az.
20 Jul 7.5 05:15:03 10° N 05:17:28 12° NNE 05:19:51 10° NE visible
20 Jul 7.3 07:05:19 10° NW 07:09:47 17° N 07:14:05 10° NE visible
21 Jul 7.3 06:04:38 10° NNW 06:09:01 16° N 06:13:15 10° NE visible
22 Jul 7.3 05:06:35 14° N 05:08:13 15° NNE 05:12:06 10° NE visible
22 Jul 7.2 06:55:52 10° NW 07:00:36 18° N 07:05:09 10° NE visible
23 Jul 7.6 04:09:26 11° NE 04:09:26 11° NE 04:10:25 10° NE visible
23 Jul 7.2 05:55:48 12° NNW 05:59:48 18° N 06:04:31 10° NE visible
23 Jul 7.4 07:48:03 10° NW 07:52:09 16° NNW 07:56:07 10° NNE visible
24 Jul 7.1 04:58:35 17° N 04:58:59 17° N 05:03:37 10° NE visible
24 Jul 7.2 06:46:39 10° NW 06:51:24 18° N 06:55:58 10° NNE visible
25 Jul 7.6 04:01:20 12° NE 04:01:20 12° NE 04:02:23 10° NE visible
25 Jul 7.1 05:47:42 15° NNW 05:50:35 19° N 05:55:30 10° NE visible
25 Jul 7.4 07:39:27 10° NW 07:42:54 14° NNW 07:46:16 10° N visible
26 Jul 7.1 04:50:26 19° N 04:50:26 19° N 04:54:46 10° NE visible
26 Jul 7.2 06:37:42 10° NW 06:42:09 16° NNW 06:46:30 10° NNE visible
27 Jul 7.7 03:53:08 12° NE 03:53:08 12° NE 03:53:46 10° NE visible
27 Jul 7.0 05:39:30 17° NNW 05:41:21 18° N 05:46:14 10° NNE visible
27 Jul 7.4 07:31:39 10° NW 07:33:37 11° NNW 07:35:33 10° N visible
28 Jul 7.2 04:42:12 18° NNE 04:42:12 18° NNE 04:45:40 10° NE visible
28 Jul 7.3 06:29:05 10° NW 06:32:53 14° NNW 06:36:37 10° NNE visible
29 Jul 7.0 05:31:16 17° NNW 05:32:05 17° NNW 05:36:42 10° NNE visible
